Location: Marion Hill
(40.7303°N, 80.2959°W)
Time: 17:44:09
(UTC+00:00)

ERS-2 - Pass Details

Date: 29 October 2020
Orbit: 493 x 497 km, 98.6° (Epoch: 28 November)

Event Time Altitude Azimuth Distance (km) Brightness Sun altitude
Rises 23:31:02 0° 2° (N) 2,584 5.7 -13.9°
Reaches altitude 10° 23:33:17 10° 351° (N) 1,697 4.8 -14.3°
Maximum altitude 23:36:29 29° 290° (WNW) 924 4.2 -14.9°
Drops below altitude 10° 23:39:39 10° 229° (SW) 1,687 5.6 -15.5°
Sets 23:41:53 0° 218° (SW) 2,565 6.4 -15.9°
